This demonstration page uses our WeatherBlox Daily Observations layout. Learn more.

Hourly Observations for April 17, 2019

Temp ( °F °C ) Dew Point ( °F °C ) Humidity (%) Winds ( mph kmh ) Pressure ( in mb ) Visibility ( mi km ) Precip ( " mm )
12:15 am 00:15 Clear 60 15.7 58 14.3 91 91 SSE 12 19 29.61 1003 10 16.0934 0 0
12:35 am 00:35 Clear with Nearby Thunderstorms 59 15.1 57 14.1 94 94 SSE 7 11 29.63 1003 10 16.0934 0 0
12:55 am 00:55 Clear 59 14.8 57 14 95 95 S 7 11 29.64 1004 10 16.0934 0 0
1:15 am 01:15 Clear 59 15.1 57 14 93 93 S 9 15 29.63 1003 10 16.0934 0 0
1:35 am 01:35 Clear 58 14.6 56 13.5 93 93 S 7 11 29.63 1003 10 16.0934 0 0
1:55 am 01:55 Clear 58 14.4 56 13.5 94 94 S 9 15 29.62 1003 10 16.0934 0 0
2:15 am 02:15 Clear 58 14.3 56 13.5 95 95 S 9 15 29.63 1003 10 16.0934 0 0
2:35 am 02:35 Clear 58 14.5 56 13.4 93 93 S 6 9 29.62 1003 10 16.0934 0 0
2:55 am 02:55 Clear 56 13.5 55 12.8 96 96 S 6 9 29.61 1003 10 16.0934 0 0
3:15 am 03:15 Clear 55 12.9 55 12.5 97 97 SSE 6 9 29.61 1003 10 16.0934 0 0
3:35 am 03:35 Clear 54 12.1 54 12 99 99 SE 5 7 29.6 1003 10 16.0934 0 0
3:55 am 03:55 Clear 55 12.5 54 12.3 99 99 SW 5 7 29.62 1003 10 16.0934 0 0
4:15 am 04:15 Mostly Cloudy 56 13.1 55 13 99 99 SSW 9 15 29.62 1003 10 16.0934 0 0
4:35 am 04:35 Cloudy 56 13.5 56 13.1 97 97 SSW 7 11 29.62 1003 10 16.0934 0 0
4:55 am 04:55 Cloudy with Light Rain 57 14 56 13.2 95 95 SSW 7 11 29.62 1003 10 16.0934 0 0
5:15 am 05:15 Mostly Cloudy 57 13.7 56 13.1 96 96 SSW 6 9 29.61 1003 10 16.0934 0 0
5:35 am 05:35 Clear 56 13.1 55 12.6 97 97 SSW 7 11 29.61 1003 10 16.0934 0 0
5:55 am 05:55 Partly Cloudy 54 12.3 54 12.2 99 99 SW 6 9 29.63 1003 10 16.0934 0 0
6:15 am 06:15 Clear 55 12.9 55 12.7 99 99 SSW 6 9 29.63 1003 10 16.0934 0 0
6:35 am 06:35 Mostly Cloudy 55 12.7 55 12.5 99 99 SSW 5 7 29.63 1003 10 16.0934 0 0
6:55 am 06:55 Cloudy with Thunderstorms 55 13 55 12.8 99 99 WSW 7 11 29.64 1004 10 16.0934 0.01 0.254
7:15 am 07:15 Mostly Cloudy with Light Thunderstorms 54 12 53 11.5 97 97 ENE 10 17 29.61 1003 10 16.0934 0.02 0.508
7:55 am 07:55 Mostly Cloudy with Light Rain 54 12.3 54 12 98 98 NNW 15 24 29.64 1004 10 16.0934 0.03 0.762
8:15 am 08:15 Sunny 54 12.3 52 11.2 93 93 NNW 12 19 29.66 1004 10 16.0934 0 0
8:35 am 08:35 Sunny 54 12.2 52 11 92 92 NNW 9 15 29.67 1005 10 16.0934 0 0
8:55 am 08:55 Sunny 54 12.3 52 11 92 92 NNW 8 13 29.68 1005 10 16.0934 0 0
9:15 am 09:15 Sunny 55 12.6 52 11.1 91 91 NNW 6 9 29.68 1005 10 16.0934 0 0
9:35 am 09:35 Partly Cloudy 56 13.4 52 11.1 86 86 NW 9 15 29.68 1005 10 16.0934 0 0
9:55 am 09:55 Partly Cloudy 56 13.6 52 11.2 86 86 Calm 29.68 1005 10 16.0934 0 0
10:15 am 10:15 Mostly Cloudy 59 15.1 52 10.9 76 76 NNW 10 17 29.68 1005 10 16.0934 0 0
10:35 am 10:35 Partly Cloudy with Nearby Thunderstorms 59 15.1 50 10.2 73 73 NNW 13 20 29.7 1006 10 16.0934 0 0
10:55 am 10:55 Sunny 60 15.8 51 10.4 70 70 NNW 15 24 29.7 1006 10 16.0934 0 0
11:15 am 11:15 Sunny 62 16.7 51 10.6 67 67 N 16 26 29.71 1006 10 16.0934 0 0
11:35 am 11:35 Sunny 63 17 50 10.1 64 64 N 15 24 29.71 1006 10 16.0934 0 0
11:55 am 11:55 Partly Cloudy 63 17.2 50 9.9 62 62 NNW 12 19 29.72 1006 10 16.0934 0 0
12:15 pm 12:15 Partly Cloudy 64 18 51 10.5 62 62 NNW 14 22 29.7 1006 10 16.0934 0 0
12:35 pm 12:35 Cloudy 65 18.1 52 10.9 63 63 NNW 16 26 29.71 1006 10 16.0934 0 0
12:55 pm 12:55 Mostly Cloudy 64 17.5 51 10.4 63 63 NNW 14 22 29.73 1007 10 16.0934 0 0
1:15 pm 13:15 Partly Cloudy 63 17.3 50 10.1 63 63 NNW 17 28 29.72 1006 10 16.0934 0 0
1:35 pm 13:35 Partly Cloudy 65 18.4 50 10.2 59 59 NW 18 30 29.7 1006 10 16.0934 0 0
1:55 pm 13:55 Cloudy 64 17.6 49 9.7 60 60 NW 20 31 29.72 1006 10 16.0934 0 0
2:15 pm 14:15 Cloudy 64 17.5 49 9.2 58 58 NW 23 37 29.73 1007 10 16.0934 0 0
2:35 pm 14:35 Mostly Cloudy 62 16.6 47 8.5 59 59 NW 20 31 29.74 1007 10 16.0934 0 0
2:55 pm 14:55 Partly Cloudy 60 15.3 46 8 62 62 NNW 18 30 29.75 1007 10 16.0934 0 0
3:15 pm 15:15 Sunny 60 15.8 46 7.6 58 58 NNW 23 37 29.73 1007 10 16.0934 0 0
3:35 pm 15:35 Sunny 61 16 46 7.5 57 57 NNW 17 28 29.74 1007 10 16.0934 0 0
3:55 pm 15:55 Sunny 61 16 44 6.7 54 54 NNW 15 24 29.74 1007 10 16.0934 0 0
4:15 pm 16:15 Sunny 62 16.6 44 6.4 51 51 NNW 22 35 29.73 1007 10 16.0934 0 0
4:35 pm 16:35 Sunny 63 17 43 6 49 49 N 20 31 29.71 1006 10 16.0934 0 0
4:55 pm 16:55 Sunny 64 17.5 42 5.5 45 45 N 18 30 29.71 1006 10 16.0934 0 0
5:15 pm 17:15 Sunny 63 17.1 41 5.2 46 46 N 21 33 29.72 1006 10 16.0934 0 0
5:35 pm 17:35 Sunny 62 16.7 42 5.3 47 47 N 17 28 29.74 1007 10 16.0934 0 0
5:55 pm 17:55 Sunny 61 16.2 40 4.6 46 46 N 18 30 29.74 1007 10 16.0934 0 0
6:15 pm 18:15 Sunny 63 17.1 38 3.4 40 40 N 18 30 29.74 1007 10 16.0934 0 0
6:35 pm 18:35 Sunny 61 16 38 3.6 44 44 N 17 28 29.76 1008 10 16.0934 0 0
6:55 pm 18:55 Sunny 60 15.6 38 3.5 45 45 N 15 24 29.77 1008 10 16.0934 0 0
7:15 pm 19:15 Sunny 60 15.8 38 3.4 44 44 N 14 22 29.77 1008 10 16.0934 0 0
7:35 pm 19:35 Sunny 60 15.4 37 2.9 43 43 N 16 26 29.79 1009 10 16.0934 0 0
7:55 pm 19:55 Sunny 58 14.4 38 3.6 49 49 N 16 26 29.79 1009 10 16.0934 0 0
8:15 pm 20:15 Sunny 56 13.1 39 3.7 53 53 N 12 19 29.82 1010 10 16.0934 0 0
8:35 pm 20:35 Clear 54 12 39 3.7 57 57 NNE 10 17 29.84 1010 10 16.0934 0 0
8:55 pm 20:55 Clear 52 10.9 38 3.5 61 61 N 10 17 29.84 1011 10 16.0934 0 0
9:15 pm 21:15 Clear 50 10 38 3.5 64 64 N 9 15 29.86 1011 10 16.0934 0 0
9:35 pm 21:35 Clear 48 9 38 3.6 69 69 N 12 19 29.87 1012 10 16.0934 0 0
9:55 pm 21:55 Clear 46 8 39 3.9 76 76 N 9 15 29.89 1012 10 16.0934 0 0
10:15 pm 22:15 Clear 45 7.4 39 3.8 78 78 N 9 15 29.9 1012 10 16.0934 0 0
10:35 pm 22:35 Clear 47 8.2 40 4.5 78 78 N 8 13 29.88 1012 10 16.0934 0 0
10:55 pm 22:55 Clear 46 7.7 40 4.5 80 80 N 7 11 29.88 1012 10 16.0934 0 0
11:15 pm 23:15 Clear 46 7.5 40 4.4 81 81 N 7 11 29.89 1012 10 16.0934 0 0
11:35 pm 23:35 Clear 44 6.6 39 4 84 84 NW 5 7 29.88 1012 10 16.0934 0 0
11:55 pm 23:55 Clear 41 5.1 38 3.3 88 88 NNW 6 9 29.9 1012 10 16.0934 0 0

Powered by AerisWeather